Weather History for Sonora, TX

Change the Weather History Date:

Monday, July 8, 2013

  Actual Average (KOZA) Record (KOZA)
Temperature  
Mean Temperature 82 °F -  
Max Temperature 89 °F 93 °F 100 °F (2011)
Min Temperature 75 °F 69 °F 68 °F (2014)
Cooling Degree Days 17    
Growing Degree Days 32 (Base 50)    
Moisture  
Dew Point 64 °F    
Average Humidity 56    
Maximum Humidity 83    
Minimum Humidity 33    
Precipitation  
Precipitation 0.00 in - - ()
Sea Level Pressure  
Sea Level Pressure 30.12 in    
Wind  
Wind Speed 9 mph (SSE)    
Max Wind Speed 15 mph    
Max Gust Speed 22 mph    
Visibility 9 miles    
Events      
Averages and records for this station are not official NWS values.
T = Trace of Precipitation, MM = Missing Value Source: NWS Daily Summary

Daily Weather History Graph

Daily Weather History Graph

Search for Another Location

Airport:

Trip Planner

Search our weather history database for the weather conditions in past years. The results will help you decide how hot, cold, wet, or windy it might be!

Date:

Astronomy

Jul. 08, 2013 Rise Set
Actual Time 6:46 AM CDT 8:48 PM CDT
Civil Twilight 6:19 AM CDT 9:15 PM CDT
Nautical Twilight 5:46 AM CDT 9:48 PM CDT
Astronomical Twilight 5:10 AM CDT 10:24 PM CDT
Moon 7:11 AM CDT (7/8) 8:59 PM CDT (7/8)
Length of Visible Light 14h 56m
Length of Day
14h 01m
New Moon, 0% of the Moon is Illuminated
Jul 8
New Moon
Jul 15
First Quarter
Jul 22
Full
Jul 29
Last Quarter
Aug 6
New

Hourly Weather History & Observations

Time (CDT) Temp. Heat Index Dew Point Humidity Pressure Visibility Wind Dir Wind Speed Gust Speed Precip Events Conditions
12:15 AM 82.4 °F 83.9 °F 64.4 °F 54% 30.06 in 10.0 mi SSE 10.4 mph - N/A   Clear
12:35 AM 82.4 °F 84.6 °F 66.2 °F 58% 30.06 in 10.0 mi South 9.2 mph - N/A   Clear
12:55 AM 82.4 °F 84.6 °F 66.2 °F 58% 30.07 in 10.0 mi South 10.4 mph - N/A   Clear
1:15 AM 80.6 °F 82.7 °F 66.2 °F 61% 30.07 in 10.0 mi SSE 9.2 mph - N/A   Clear
1:35 AM 80.6 °F 82.7 °F 66.2 °F 61% 30.07 in 10.0 mi SSE 8.1 mph - N/A   Clear
1:55 AM 80.6 °F 82.7 °F 66.2 °F 61% 30.07 in 10.0 mi SSE 8.1 mph - N/A   Clear
2:15 AM 80.6 °F 83.2 °F 68.0 °F 65% 30.07 in 10.0 mi SSE 9.2 mph - N/A   Clear
2:35 AM 78.8 °F - 68.0 °F 69% 30.07 in 10.0 mi South 8.1 mph - N/A   Clear
2:55 AM 78.8 °F - 68.0 °F 69% 30.07 in 10.0 mi South 9.2 mph - N/A   Clear
3:15 AM 78.8 °F - 68.0 °F 69% 30.07 in 10.0 mi South 6.9 mph - N/A   Clear
3:35 AM 78.8 °F - 68.0 °F 69% 30.08 in 10.0 mi South 5.8 mph - N/A   Clear
3:55 AM 78.8 °F - 69.8 °F 74% 30.08 in 10.0 mi South 6.9 mph - N/A   Clear
4:15 AM 77.0 °F - 69.8 °F 78% 30.08 in 10.0 mi SSE 5.8 mph - N/A   Clear
4:35 AM 77.0 °F - 69.8 °F 78% 30.09 in 10.0 mi SSE 5.8 mph - N/A   Clear
4:55 AM 77.0 °F - 69.8 °F 78% 30.09 in 10.0 mi SSE 5.8 mph - N/A   Clear
5:15 AM 75.2 °F - 69.8 °F 83% 30.11 in 10.0 mi SSE 4.6 mph - N/A   Clear
5:55 AM 75.2 °F - 69.8 °F 83% 30.11 in 10.0 mi SE 4.6 mph - N/A   Clear
6:15 AM 75.2 °F - 69.8 °F 83% 30.12 in 10.0 mi South 8.1 mph - N/A   Clear
6:35 AM 75.2 °F - 69.8 °F 83% 30.12 in 10.0 mi South 6.9 mph - N/A   Clear
6:55 AM 75.2 °F - 69.8 °F 83% 30.13 in 10.0 mi SSE 8.1 mph - N/A   Clear
7:15 AM 75.2 °F - 69.8 °F 83% 30.14 in 10.0 mi SSE 6.9 mph - N/A   Partly Cloudy
7:35 AM 75.2 °F - 69.8 °F 83% 30.14 in 10.0 mi South 11.5 mph - N/A   Scattered Clouds
7:55 AM 75.2 °F - 68.0 °F 78% 30.15 in 9.0 mi South 9.2 mph - N/A   Partly Cloudy
8:15 AM 75.2 °F - 68.0 °F 78% 30.16 in 10.0 mi SSE 10.4 mph - N/A   Partly Cloudy
8:35 AM 75.2 °F - 68.0 °F 78% 30.17 in 10.0 mi South 11.5 mph - N/A   Partly Cloudy
8:55 AM 77.0 °F - 69.8 °F 78% 30.18 in 9.0 mi South 9.2 mph - N/A   Mostly Cloudy
9:15 AM - - - N/A% - - North - - N/A   Unknown
9:35 AM - - - N/A% - - North - - N/A   Unknown
9:55 AM - - - N/A% - - North - - N/A   Unknown
10:15 AM - - - N/A% - - North - - N/A   Unknown
10:35 AM - - - N/A% - - North - - N/A   Unknown
10:55 AM - - - N/A% - - North - - N/A   Unknown
11:15 AM - - - N/A% - - North - - N/A   Unknown
11:35 AM 84.2 °F 86.6 °F 66.2 °F 55% 30.18 in 10.0 mi South 10.4 mph 17.3 mph N/A   Unknown
11:55 AM - - - N/A% - - North - - N/A   Unknown
12:15 PM 87.8 °F 89.4 °F 64.4 °F 46% 30.17 in 10.0 mi South 12.7 mph 20.7 mph N/A   Unknown
12:35 PM 86.0 °F 86.6 °F 62.6 °F 45% 30.17 in 9.0 mi South 15.0 mph 20.7 mph N/A   Scattered Clouds
12:55 PM 87.8 °F 88.5 °F 62.6 °F 43% 30.17 in 8.0 mi South 12.7 mph 19.6 mph N/A   Scattered Clouds
1:15 PM 87.8 °F 89.4 °F 64.4 °F 46% 30.16 in 10.0 mi South 10.4 mph 17.3 mph N/A   Partly Cloudy
1:35 PM 87.8 °F 88.5 °F 62.6 °F 43% 30.16 in 10.0 mi South 12.7 mph 21.9 mph N/A   Scattered Clouds
1:55 PM 87.8 °F 88.5 °F 62.6 °F 43% 30.15 in 7.0 mi South 13.8 mph - N/A   Scattered Clouds
2:15 PM 89.6 °F 90.1 °F 62.6 °F 40% 30.15 in 8.0 mi South 11.5 mph 16.1 mph N/A   Scattered Clouds
2:35 PM 87.8 °F 88.5 °F 62.6 °F 43% 30.14 in 9.0 mi South 11.5 mph - N/A   Scattered Clouds
2:55 PM 87.8 °F 88.5 °F 62.6 °F 43% 30.14 in 5.0 mi SSW 9.2 mph - N/A   Haze
3:15 PM 87.8 °F 88.5 °F 62.6 °F 43% 30.13 in 10.0 mi SW 8.1 mph - N/A   Partly Cloudy
3:35 PM 87.8 °F 88.5 °F 62.6 °F 43% 30.13 in 8.0 mi South 6.9 mph - N/A   Scattered Clouds
3:55 PM 87.8 °F 88.5 °F 62.6 °F 43% 30.12 in 10.0 mi South 6.9 mph - N/A   Partly Cloudy
4:15 PM 87.8 °F 88.5 °F 62.6 °F 43% 30.12 in 10.0 mi South 8.1 mph - N/A   Clear
4:35 PM 87.8 °F 88.5 °F 62.6 °F 43% 30.11 in 9.0 mi South 8.1 mph - N/A   Partly Cloudy
4:55 PM 87.8 °F 88.5 °F 62.6 °F 43% 30.11 in 9.0 mi South 8.1 mph - N/A   Partly Cloudy
5:15 PM 87.8 °F 88.5 °F 62.6 °F 43% 30.11 in 2.5 mi SE 9.2 mph - N/A   Haze
5:35 PM 87.8 °F 88.5 °F 62.6 °F 43% 30.11 in 8.0 mi SSE 11.5 mph - N/A   Partly Cloudy
5:55 PM 87.8 °F 88.5 °F 62.6 °F 43% 30.11 in 9.0 mi SSE 12.7 mph - N/A   Partly Cloudy
6:15 PM 87.8 °F 87.6 °F 60.8 °F 40% 30.10 in 10.0 mi SSE 10.4 mph - N/A   Partly Cloudy
6:35 PM 87.8 °F 87.6 °F 60.8 °F 40% 30.10 in 6.0 mi South 13.8 mph 20.7 mph N/A   Haze
6:55 PM 87.8 °F 87.6 °F 60.8 °F 40% 30.10 in 10.0 mi SE 13.8 mph 18.4 mph N/A   Clear
7:15 PM 86.0 °F 86.1 °F 60.8 °F 43% 30.11 in 10.0 mi SE 10.4 mph - N/A   Clear
7:35 PM 86.0 °F 86.1 °F 60.8 °F 43% 30.11 in 9.0 mi SE 10.4 mph - N/A   Clear
7:55 PM 86.0 °F 84.2 °F 53.6 °F 33% 30.12 in 9.0 mi SE 9.2 mph - N/A   Clear
8:15 PM 84.2 °F 83.5 °F 57.2 °F 40% 30.12 in 10.0 mi SSE 10.4 mph 16.1 mph N/A   Clear
8:35 PM 84.2 °F 83.5 °F 57.2 °F 40% 30.12 in 10.0 mi SSE 6.9 mph - N/A   Clear
8:55 PM 84.2 °F 83.8 °F 59.0 °F 42% 30.12 in 10.0 mi SSE 6.9 mph - N/A   Clear
9:15 PM 82.4 °F 82.5 °F 59.0 °F 45% 30.12 in 10.0 mi SSE 10.4 mph - N/A   Clear
9:35 PM 82.4 °F 82.9 °F 60.8 °F 48% 30.13 in 10.0 mi South 9.2 mph - N/A   Clear
9:55 PM 82.4 °F 82.9 °F 60.8 °F 48% 30.15 in 10.0 mi SSE 9.2 mph - N/A   Clear
10:15 PM 82.4 °F 83.4 °F 62.6 °F 51% 30.15 in 10.0 mi SSE 8.1 mph - N/A   Clear
10:35 PM 82.4 °F 83.4 °F 62.6 °F 51% 30.16 in 10.0 mi SSE 8.1 mph - N/A   Clear
10:55 PM 80.6 °F 81.8 °F 62.6 °F 54% 30.17 in 10.0 mi SSE 6.9 mph - N/A   Clear
11:15 PM 80.6 °F 81.8 °F 62.6 °F 54% 30.17 in 10.0 mi SSE 5.8 mph - N/A   Clear
11:35 PM 80.6 °F 81.8 °F 62.6 °F 54% 30.18 in 10.0 mi SSE 8.1 mph - N/A   Clear
11:55 PM 80.6 °F 81.8 °F 62.6 °F 54% 30.18 in 10.0 mi SSE 11.5 mph - N/A   Clear